Terug naar catalogus

SL-12 R/B(2)

ActiefMEO
NORAD 14595·ROCKET BODY·🇷🇺 Russia

Gelanceerd Dec 29, 1983 vanaf Baikonur Cosmodrome

Loading…

Volgende Passages (komende 24 uur)

TLE

VersSource: Space-Track

Epoch: Sep 14, 2026, 09:34 UTC

1 14595U 83127F   26257.39909190 -.00000065  00000-0  00000-0 0  9999
2 14595  66.2104 320.9952 0069690 188.0490 174.8513  2.13938736273301

Volg SL-12 R/B(2) in realtime met AllMySat

Download on the App Store